Regional Weather Roundup
Issued by NWS Charleston, SC

Current Version | Previous Version | Graphics & Text | Print | Product List | Glossary On
Versions: 1 2 3 4 5 6 7 8 9 10 11 12 13 14 15 16 17 18 19 20 21 22 23 24 25 26 27 28 29 30 31 32 33 34 35 36 37 38 39 40 41 42 43 44 45 46 47 48 49 50
000
ASUS42 KCHS 210011
RWRCHS

REGIONAL WEATHER ROUNDUP
NATIONAL WEATHER SERVICE CHARLESTON SC
800 PM EDT MON APR 20 2015

NOTE: "FAIR" INDICATES FEW OR NO CLOUDS BELOW 12,000 FEET WITH NO
SIGNIFICANT WEATHER AND/OR OBSTRUCTIONS TO VISIBILITY.

NOT ALL STATIONS ARE QUALITY CONTROLLED BY THE NATIONAL
WEATHER SERVICE. USE DATA WITH CAUTION...ESPECIALLY
DEWPOINT OBSERVATIONS.

SCZ027-030-031-034>040-042>050-210100-
...SOUTHEAST SOUTH CAROLINA...

CITY           SKY/WX    TMP DP  RH WIND       PRES   REMARKS
N CHARLESTON   CLOUDY    69  66  90 S8        29.77R
6HR MIN TEMP:  69; 6HR MAX TEMP:  75;

WATERFRONT PRK   N/A     70 N/A N/A S6          N/A
MOUNT PLEASANT FAIR      70  66  88 CALM      29.78S
PINOPOLIS      NOT AVBL
MONCKS CORNER  FAIR      70  66  88 S5        29.76S
SUMMERVILLE    FAIR      70  68  94 S3        29.77R
BEAUFORT MCAS  CLOUDY    71  63  75 SW9G17    29.76F
6HR MIN TEMP:  70; 6HR MAX TEMP:  74;

BEAUFORT ARPT  FAIR      72  64  78 SW7       29.76F
HILTON HEAD IS CLOUDY    72  61  68 SW8       29.79R
WALTERBORO     CLOUDY    68  64  88 S7        29.76S
ALLENDALE      FAIR      72  63  73 VRB6      29.73R

...SOUTHERN MIDLANDS AND PEE DEE...

CITY           SKY/WX    TMP DP  RH WIND       PRES   REMARKS
GEORGETOWN     NOT AVBL
KINGSTREE      NOT AVBL
ORANGEBURG     CLOUDY    69  64  84 S7        29.73R
6HR MIN TEMP:  69; 6HR MAX TEMP:  73;

BARNWELL       FAIR      72  64  78 SW6       29.73R
AIKEN          FAIR      70  57  64 SW7       29.74S
MANNING        FAIR      68  63  83 S7        29.74S
COLUMBIA       CLOUDY    72  62  71 SW9       29.69S
6HR MIN TEMP:  72; 6HR MAX TEMP:  76;

SUMTER         CLOUDY    70  64  83 S9        29.69S
6HR MIN TEMP:  70; 6HR MAX TEMP:  75; 6HR PCP: TRACE;

FLORENCE       CLOUDY    70  64  81 S10       29.72S
6HR MIN TEMP:  70; 6HR MAX TEMP:  78;

MYRTLE BEACH   CLEAR     70  63  78 S17       29.78R
N MYRTLE BEACH CLOUDY    68  64  87 SW20      29.76R
6HR MIN TEMP:  68; 6HR MAX TEMP:  71;


$$

GAZ063-065-086>088-099>101-113>116-118-119-134>141-150-210100-
...SOUTHEAST GEORGIA...

CITY           SKY/WX    TMP DP  RH WIND       PRES   REMARKS
SAVANNAH ARPT  CLOUDY    69  59  70 S9        29.78R
6HR MIN TEMP:  69; 6HR MAX TEMP:  73;

HUNTER AAF     CLOUDY    69  61  73 S7        29.76R
6HR MIN TEMP:  69; 6HR MAX TEMP:  74;

FORT STEWART   MOCLDY    68  61  77 S3        29.78R
6HR MIN TEMP:  69; 6HR MAX TEMP:  74;

STATESBORO       N/A     70  61  72 SW8       29.75S
SYLVANIA       CLOUDY    70  62  77 SW6       29.75R
CLAXTON        FAIR      68  63  83 CALM      29.77R

...CSRA...CENTRAL AND FAR SOUTHEAST GEORGIA...

CITY           SKY/WX    TMP DP  RH WIND       PRES   REMARKS
THOMSON        CLEAR     72  64  75 S3        29.75R
AUGUSTA-BUSH   CLEAR     70  60  70 SW8       29.71R
6HR MIN TEMP:  70; 6HR MAX TEMP:  74;

AUGUSTA-DANIEL CLEAR     72  59  63 SW8       29.72R
SWAINSBORO     NOT AVBL
VIDALIA        MOCLDY    70  61  73 SW12      29.77R
EASTMAN        FAIR      70  66  87 SW6       29.80R
HAZLEHURST     FAIR      70  61  73 SW6       29.78R
ALMA           CLOUDY    67  60  78 S6        29.79S
6HR MIN TEMP:  67; 6HR MAX TEMP:  72;

WAYCROSS       CLOUDY    70  64  81 SW7       29.82R
JESUP          FAIR      70  63  78 SW5       29.81R
BAXLEY         FAIR      70  61  73 SW6       29.79R
BRUNSWICK      CLOUDY    68  59  73 W7        29.84R
SAINT SIMONS   CLOUDY    67  58  72 W9        29.83R
6HR MIN TEMP:  67; 6HR MAX TEMP:  77; 6HR PCP:  0.01;


$$

SCZ027-028-034-036>038-045-046-048>050-GAZ119-141-210100-
...LAKE AND SUPPLEMENTAL COASTAL OBSERVATIONS...

STATION/POSITION TIME  TEMP    WIND        PRES    WAVE   SWELL
                       AIR SEA DIR/SP/G            HT/PER HT/PER/DIR
                 (UTC) (F)     (DEG/KT/KT) (MB)    (FT/S) (FT/S/D)
UPR LAKE MARION  NOT AVBL
WINYAH BAY       NOT AVBL
LAKE MURRAY      2300   72     220/  9/ 13 1005.1F
ACE BASIN NERRS  NOT AVBL
FORT PULASKI     2300   72 72  220/  8/ 13 1008.8R
SAPELO ISLAND    NOT AVBL

$$

ANZ835-935-AMZ111-154-330-350-352-354-370-450-454-472-210100-
...C-MAN AND BUOY OBSERVATIONS...

STATION/POSITION TIME  TEMP    WIND        PRES    WAVE   SWELL
                       AIR SEA DIR/SP/G            HT/PER HT/PER/DIR
                 (UTC) (F)     (DEG/KT/KT) (MB)    (FT/S) (FT/S/D)
BUOY 41004       2350   74 74  230/ 14/ 17 1008.0R   4/ 5   2/ 9
BUOY 41008       2350   71 68  170/ 19/ 23 1007.6F   4/ 5
FOLLY BEACH CMAN 0000   69     220/  8/ 10 1008.4R
CAPERS NEARSHORE NOT AVBL
FRIPP NEARSHORE  NOT AVBL


STATION/POSITION TIME  TEMP    WIND        PRES    WAVE   SWELL
                       AIR SEA DIR/SP/G            HT/PER HT/PER/DIR
                 (UTC) (F)     (DEG/KT/KT) (MB)    (FT/S) (FT/S/D)
5E ST. MARYS GA  2321      70                N/A     2/13
FRYING PAN BUOY  2350   75 73  220/ 21/ 25 1008.8R   5/ 5   2/110/ 9
BUOY 41025       2350   74 74  200/ 19/ 23 1007.6F   5/ 8   3/110/ 8
CAPE LOOKOUT NC  0000   68     190/ 11/ 13 1007.6R
BUOY 41002       2350   74 73  230/ 14/ 16 1011.5S   4/15   3/ 80/15
BUOY 41010       2320   73 78  290/ 19/ 23 1012.6R
ST AUGUSTINE FL  0000   65 64  160/  9/  9 1011.6F


$$



USA.gov is the U.S. government's official web portal to all federal, state and local government web resources and services.